Location: Arbon
(43.0005°N, 0.7472°E)
Time: 09:37:47
(UTC+00:00)

Vanguard 2 Rocket - Pass Details

Date: 27 November 2020
Orbit: 554 x 3326 km, 32.9° (Epoch: 28 January)

Event Time Altitude Azimuth Distance (km) Brightness Sun altitude
Rises 10:31:55 0° 258° (WSW) 7,302 11.4 23.6°
Reaches altitude 10° 10:37:08 10° 255° (WSW) 6,184 11.2 23.9°
Maximum altitude 10:55:15 57° 185° (S) 2,837 10.5 24.7°
Drops below altitude 10° 11:06:40 10° 110° (ESE) 4,067 10.7 25.2°
Sets 11:09:21 0° 106° (ESE) 4,750 10.9 25.2°
